Hourly Data Report for October 21, 2014

All times are specified in Local Standard Time (LST). Add 1 hour to adjust for Daylight Saving Time where and when it is observed.

ARVIAT A
NUNAVUT

61°05'38.000" N
94°04'18.000" W
10.40 m
2300427
71174
YEK

Download Data

Hourly Data (October 2014)
Hourly Data Report for October 21, 2014
Temp Definition
°C
Dew Point Temp Definition
°C
Rel Hum Definition
%
Wind Dir Definition
10's deg

Wind Spd Definition
km/h
Visibility Definition
km
Stn Press Definition
kPa
Hmdx Definition


Wind Chill Definition


Weather Definition


TIME
00:00 Legend Double Dagger 0.6 0.5 99 17 46 14.5 101.12     LegendNANA
01:00 Legend Double Dagger 1.2 0.6 96 17 43 16.1 100.99     LegendNANA
02:00 Legend Double Dagger 1.3 0.7 96 18 43 16.1 100.83     LegendNANA
03:00 Legend Double Dagger 1.4 0.8 96 18 43 16.1 100.73     LegendNANA
04:00 Legend Double Dagger 1.1 0.8 98 18 48 11.3 100.60     LegendNANA
05:00 Legend Double Dagger 1.1 1.0 99 20 48 4.8 100.48     Rain,Fog
06:00 Legend Double Dagger 0.8 0.5 98 20 41 9.7 100.43     Fog
07:00 Legend Double Dagger 1.0 0.6 97 20 35 16.1 100.34     LegendNANA
08:00 Legend Double Dagger 1.0 0.7 98 20 37 16.1 100.23     LegendNANA
09:00 Legend Double Dagger 1.0 0.7 98 20 35 16.1 100.14     LegendNANA
10:00 Legend Double Dagger 1.1 1.0 99 21 35 16.1 100.07     LegendNANA
11:00 Legend Double Dagger 0.9 0.9 100 21 34 4.8 100.02     Fog
12:00 Legend Double Dagger 0.8 0.8 100 21 26 4.8 99.99     Fog
13:00 Legend Double Dagger 1.2 1.2 100 21 26 6.4 99.92     Fog
14:00 Legend Double Dagger 1.3 1.2 99 22 22 16.1 99.91     LegendNANA
15:00 Legend Double Dagger 1.2 1.1 99 21 18 6.4 99.93     Fog
16:00 Legend Double Dagger 1.3 1.2 99 21 17 16.1 99.91     LegendNANA
17:00 Legend Double Dagger 1.0 0.9 99 20 15 16.1 99.87     LegendNANA
18:00 Legend Double Dagger 1.2 1.1 99 21 17 16.1 99.90     LegendNANA
19:00 Legend Double Dagger 1.2 1.1 99 23 15 16.1 99.98     LegendNANA
20:00 Legend Double Dagger 1.2 1.2 100 25 17 16.1 100.01     LegendNANA
21:00 Legend Double Dagger 1.1 1.1 100 24 15 4.8 100.02     Fog
22:00 Legend Double Dagger 1.1 1.1 100 23 13 12.9 100.01     LegendNANA
23:00 Legend Double Dagger 0.9 0.9 100 25 9 14.5 100.04     LegendNANA

Notes on Data Quality.

Legend

  • E = Estimated
  • M = Missing
  • NA = Not Available
  • ‡ = Partner data that is not subject to review by the National Climate Archives
Date modified: